Temp
83 84 83 80 78 78 76 75 74 74 75 74 72 72 72 72 71 73 74 73 74 74 73 73 71 71 71 71 71 70 69 68 68 68 68 68 70 72 72 72 73 74 75
81 83 82 80 77 76 76 75 75 75 75 76 76 75 75 74 74 74 73 74 74 73 74 73 71 71 71 70 70 70 68 69 69 66 65 64 67 69 72 72 73 73 73
67 81 81 78 77 76 75 75 75 75 75 76 76 71 71 70 70 71 73 74 74 73 74 73 73 72 71 70 70 69 69 66 68 69 66 61 61 64 70 70 71 73 71
69 77 82 78 78 76 76 76 76 76 76 76 75 74 73 73 75 74 75 75 75 75 74 73 72 71 73 70 71 72 70 69 67 66 68 67 67 63 62 67 68 69 70
68 67 72 76 75 77 76 75 75 76 75 74 75 75 74 76 77 70 72 73 73 74 75 73 72 71 71 71 70 70 70 69 67 67 66 67 66 65 64 63 66 68 69
67 68 70 70 68 74 76 75 74 74 75 75 74 73 74 74 70 72 71 72 72 73 74 74 72 72 72 71 71 71 70 70 69 67 67 66 65 65 64 64 65 66 68
64 64 65 67 67 66 68 69 68 70 74 74 74 74 74 74 73 73 73 70 71 70 72 72 72 72 71 72 70 70 70 70 70 69 68 67 67 67 66 65 63 63 66
63 64 65 66 68 67 67 67 67 67 70 74 72 74 75 75 74 74 76 74 74 74 74 73 74 73 72 71 71 71 70 69 68 68 67 68 68 68 68 66 64 64 64
62 63 65 65 66 67 67 67 65 66 67 69 70 72 74 76 75 74 72 76 75 75 74 74 74 73 72 72 71 70 70 69 68 68 69 68 69 69 68 68 67 66 63
63 64 65 65 66 65 65 67 66 66 66 68 70 70 73 74 76 76 72 77 76 76 74 73 73 72 72 72 71 70 70 69 68 69 68 68 68 68 68 69 67 66 66
60 63 65 66 66 67 66 66 65 65 67 69 68 71 68 67 66 67 69 72 73 74 73 72 72 72 71 71 71 70 70 69 68 68 68 67 68 67 67 66 66 65 65
61 62 63 65 65 65 67 68 65 64 67 68 69 66 66 66 65 66 67 67 68 71 72 72 71 72 72 71 71 70 71 69 68 68 67 68 68 67 67 66 65 64 64
60 61 63 64 65 65 66 66 67 66 67 68 67 65 65 63 64 65 67 67 67 68 68 69 70 70 71 71 72 72 70 69 69 68 68 68 67 66 66 66 65 65 65
59 58 61 61 64 65 66 65 67 67 69 68 66 65 65 65 65 64 66 66 68 68 68 68 68 69 70 71 70 71 70 69 70 69 68 68 67 67 67 66 66 66 67
60 60 61 61 64 65 66 66 65 66 68 67 66 65 65 65 65 65 66 67 68 68 68 68 68 69 70 72 70 71 71 69 68 68 68 68 69 69 68 68 66 66 65
63 64 64 63 64 64 65 64 64 64 66 66 65 66 66 64 64 66 66 65 66 65 66 66 68 68 71 66 65 69 70 69 69 68 68 69 69 69 66 67 67 67 65
61 61 63 63 64 64 65 65 65 65 65 65 65 65 65 66 66 66 66 66 66 66 66 66 67 68 69 64 62 65 69 69 68 68 68 69 73 68 68 65 65 65 66
60 62 61 62 63 64 65 66 66 64 65 66 65 64 63 63 63 63 64 65 65 65 67 68 67 67 69 61 61 62 66 67 67 68 68 68 70 68 68 67 66 65 65
61 61 63 63 63 62 64 64 64 65 63 63 63 63 64 63 62 62 62 65 65 65 66 68 68 68 69 58 58 61 65 65 67 67 67 68 67 65 62 67 66 65 64
61 60 63 62 61 61 63 63 62 60 60 62 63 63 63 63 63 62 62 63 66 66 67 66 67 65 68 58 57 61 67 66 65 65 67 62 66 60 58 65 65 65 65
61 63 62 58 58 59 58 57 57 57 59 61 61 61 61 62 62 63 63 64 64 64 64 65 66 66 65 65 56 55 65 66 66 67 66 67 58 56 54 55 66 66 67
63 63 60 58 58 58 58 56 56 57 58 58 58 59 60 61 61 61 62 63 63 63 63 63 63 64 61 56 54 55 55 57 65 66 66 65 56 53 51 53 56 54 56
61 62 59 59 58 58 57 56 56 57 57 57 56 56 59 59 59 59 59 59 61 62 61 60 60 60 61 60 53 51 54 56 60 62 61 56 53 51 54 53 53 53 60
61 61 61 59 58 59 59 57 57 57 57 56 55 56 56 55 55 58 59 58 58 58 61 61 59 59 59 59 59 58 56 55 56 56 55 56 54 54 58 60 57 60 61
61 61 59 58 58 58 58 57 57 56 55 55 55 54 54 54 54 55 57 58 58 58 58 59 60 58 56 57 50 50 52 52 50 48 53 54 56 58 60 62 63 63 62
62 59 58 58 58 58 57 58 57 56 54 54 54 53 53 53 54 54 56 55 52 47 46 46 52 56 51 44 42 41 41 42 43 51 53 55 55 55 57 59 60 61 61
MSLP
999.99 1001.79 1002.38 1003.15 1003.87 1004.37 1004.98 1005.68 1006.55 1007.05 1007.61 1008.01 1008.67 1009.31 1009.62 1010.10 1010.56 1010.90 1011.09 1011.50 1012.00 1012.57 1012.99 1013.46 1013.95 1014.21 1014.75 1015.07 1015.52 1015.92 1016.25 1016.59 1016.56 1016.97 1017.11 1016.93 1016.66 1016.54 1016.35 1016.30 1016.43 1016.43 1016.50
1001.14 1001.04 1001.53 1002.25 1002.64 1003.58 1004.26 1004.84 1005.58 1006.33 1006.95 1007.19 1007.56 1008.37 1009.00 1009.46 1009.93 1010.35 1010.69 1011.02 1011.51 1012.05 1012.45 1012.95 1013.47 1013.96 1014.41 1014.78 1015.27 1015.65 1016.09 1016.10 1016.33 1016.85 1017.31 1017.20 1016.76 1016.26 1015.91 1015.85 1015.91 1015.95 1015.93
1001.54 1000.32 1000.72 1000.89 1002.19 1002.74 1002.82 1003.67 1004.34 1005.47 1006.26 1006.96 1007.48 1007.93 1008.79 1009.38 1009.72 1009.94 1010.20 1010.64 1010.92 1011.35 1011.75 1012.22 1012.73 1013.34 1013.92 1014.37 1014.58 1015.06 1015.43 1015.87 1016.22 1016.14 1016.48 1017.05 1016.84 1016.47 1015.72 1015.53 1015.49 1015.56 1015.58
1001.29 1000.20 1000.04 1000.80 1001.77 1003.48 1004.92 1005.80 1005.86 1005.65 1006.13 1006.49 1007.15 1007.05 1007.47 1008.18 1008.49 1008.96 1009.41 1009.93 1010.25 1010.74 1011.24 1011.65 1012.20 1012.73 1013.29 1013.68 1013.86 1014.23 1014.64 1015.06 1015.75 1016.27 1016.02 1015.89 1016.06 1016.39 1016.32 1015.69 1015.44 1015.42 1015.42
1002.78 1001.88 1001.19 1001.71 1002.45 1002.78 1003.63 1004.60 1005.79 1006.49 1006.88 1007.82 1008.07 1007.75 1007.19 1007.52 1007.88 1008.70 1009.27 1009.64 1009.98 1010.33 1010.56 1010.97 1011.78 1012.32 1012.68 1013.04 1013.44 1013.78 1014.02 1014.36 1014.93 1015.23 1015.43 1015.69 1015.98 1016.24 1016.47 1016.20 1015.72 1015.26 1014.96
1004.47 1003.57 1002.99 1002.23 1002.73 1002.90 1003.51 1004.18 1004.81 1005.60 1006.37 1006.89 1007.18 1008.08 1008.14 1007.17 1007.70 1008.17 1008.78 1009.31 1009.61 1010.02 1010.24 1010.54 1011.04 1011.53 1012.01 1012.42 1012.87 1013.22 1013.58 1013.94 1014.11 1014.46 1014.75 1014.97 1015.39 1015.68 1016.13 1016.25 1015.91 1015.61 1015.00
1005.56 1005.31 1004.39 1003.55 1003.20 1003.52 1004.34 1004.50 1004.62 1004.98 1005.41 1006.46 1006.67 1006.66 1007.26 1007.64 1007.18 1007.44 1007.83 1008.46 1009.05 1009.48 1009.81 1010.16 1010.56 1010.93 1011.17 1011.61 1012.16 1012.73 1013.05 1013.26 1013.58 1014.03 1014.28 1014.42 1014.53 1014.74 1015.18 1015.64 1015.77 1015.68 1015.10
1006.01 1005.79 1005.62 1005.00 1004.12 1003.06 1003.40 1004.12 1004.59 1004.91 1004.75 1005.38 1006.83 1006.98 1006.72 1006.45 1007.24 1007.06 1007.25 1007.66 1008.02 1008.40 1008.88 1009.40 1009.86 1010.27 1010.50 1010.94 1011.54 1012.07 1012.48 1012.73 1013.12 1013.53 1013.62 1013.91 1013.95 1014.15 1014.41 1014.77 1015.39 1015.49 1015.18
1006.08 1005.74 1005.39 1005.10 1004.88 1004.58 1003.49 1003.62 1003.54 1003.59 1003.99 1004.36 1005.53 1006.51 1006.07 1006.84 1006.21 1006.75 1007.03 1007.08 1007.45 1007.74 1008.24 1008.64 1009.17 1009.65 1010.07 1010.34 1010.77 1011.44 1011.93 1012.31 1012.61 1012.80 1013.12 1013.30 1013.33 1013.66 1013.94 1014.22 1014.52 1014.83 1014.85
1006.23 1005.65 1005.35 1004.94 1004.96 1005.11 1005.20 1004.80 1004.09 1003.24 1002.41 1001.29 1002.68 1004.58 1005.48 1006.06 1006.17 1006.13 1006.72 1006.82 1007.14 1007.48 1007.79 1008.26 1008.64 1009.06 1009.53 1009.87 1010.18 1010.69 1011.23 1011.81 1012.05 1012.24 1012.55 1012.78 1012.91 1013.25 1013.54 1013.75 1013.93 1014.22 1014.41
1006.50 1005.67 1005.10 1004.73 1005.11 1005.12 1005.19 1005.09 1004.39 1003.66 1002.37 1000.25 1001.11 1005.21 1003.54 1005.62 1006.77 1006.49 1006.60 1006.51 1006.47 1006.96 1007.34 1007.67 1008.03 1008.43 1008.89 1009.22 1009.59 1009.94 1010.45 1011.01 1011.47 1011.72 1012.04 1012.38 1012.53 1012.76 1013.14 1013.61 1013.67 1013.87 1013.98
1006.34 1005.70 1005.19 1004.63 1004.35 1004.27 1003.88 1003.37 1003.14 1003.20 1003.61 1003.58 1004.14 1004.80 1005.21 1005.46 1006.68 1006.95 1006.56 1006.61 1006.98 1006.62 1006.61 1006.72 1007.25 1007.82 1008.17 1008.64 1008.97 1009.36 1009.66 1010.18 1010.86 1011.41 1011.80 1012.07 1012.30 1012.54 1012.81 1013.11 1013.68 1013.67 1013.63
1006.42 1005.76 1005.04 1004.73 1004.22 1004.31 1004.05 1003.67 1002.88 1002.26 1002.55 1003.09 1003.32 1004.61 1005.59 1002.63 1004.63 1006.08 1005.51 1006.33 1006.76 1006.99 1006.98 1006.89 1006.85 1007.25 1007.75 1008.04 1008.11 1008.35 1009.03 1009.55 1010.03 1010.71 1011.37 1011.60 1011.84 1012.20 1012.50 1012.60 1013.28 1013.57 1013.40
1006.61 1006.10 1005.35 1004.74 1004.39 1004.26 1003.95 1003.67 1002.89 1002.15 1001.03 1002.71 1002.39 1003.02 1002.95 1001.91 1002.49 1003.31 1004.08 1004.29 1006.60 1007.28 1006.68 1006.94 1007.28 1007.46 1007.43 1007.61 1007.88 1008.03 1008.54 1009.11 1009.48 1009.98 1010.65 1011.11 1011.42 1011.48 1011.75 1011.80 1012.16 1012.70 1013.17
1006.69 1005.99 1005.12 1004.71 1004.19 1004.01 1003.75 1003.79 1002.74 1001.56 1001.88 1001.78 1003.70 1004.31 1003.61 1002.53 1002.93 1003.69 1003.97 1004.41 1005.81 1006.36 1006.52 1006.53 1007.37 1006.91 1007.01 1007.04 1007.38 1007.65 1008.05 1008.55 1009.12 1009.55 1010.00 1010.35 1010.66 1010.57 1010.75 1011.05 1011.19 1011.89 1012.47
1006.60 1005.82 1005.43 1005.17 1004.24 1003.98 1003.28 1003.44 1003.57 1003.19 1002.59 1003.04 1003.31 1003.21 1003.40 1002.82 1003.52 1004.04 1003.94 1004.67 1005.90 1006.13 1006.43 1006.73 1006.82 1006.87 1006.51 1006.35 1007.07 1007.48 1007.67 1008.02 1008.46 1008.91 1009.48 1009.60 1009.94 1010.15 1010.25 1010.51 1010.37 1010.58 1011.32
1006.48 1006.09 1005.81 1005.37 1004.74 1004.35 1003.58 1003.58 1003.62 1003.42 1002.91 1002.54 1003.38 1003.33 1002.92 1003.20 1003.83 1004.38 1004.65 1005.09 1005.77 1006.30 1006.16 1006.50 1006.40 1006.19 1006.11 1006.37 1006.78 1007.13 1007.45 1007.63 1007.89 1008.34 1008.70 1008.89 1009.10 1009.32 1009.73 1009.93 1010.18 1010.06 1010.07
1006.72 1006.13 1005.90 1005.37 1005.39 1004.98 1004.58 1004.26 1003.94 1003.58 1003.51 1003.95 1003.52 1003.62 1004.17 1004.25 1004.40 1004.49 1004.76 1004.97 1005.36 1005.57 1005.59 1005.51 1005.46 1005.74 1005.89 1006.41 1006.68 1007.10 1007.17 1007.34 1007.70 1007.91 1007.87 1008.32 1008.40 1008.48 1008.89 1009.25 1009.58 1009.67 1009.71
1006.69 1006.31 1006.16 1005.91 1005.95 1005.64 1005.46 1005.09 1004.83 1004.66 1004.53 1004.82 1004.95 1005.17 1004.78 1004.54 1004.19 1004.28 1004.51 1004.83 1004.98 1005.26 1005.26 1005.05 1005.11 1005.37 1005.50 1005.73 1005.97 1006.38 1007.30 1007.62 1007.47 1007.35 1007.31 1007.71 1008.00 1007.76 1007.89 1008.55 1008.82 1008.93 1009.11
1006.87 1006.67 1006.30 1006.50 1006.67 1006.66 1006.18 1005.86 1005.77 1005.92 1005.76 1005.38 1005.05 1004.97 1004.80 1004.45 1004.39 1004.66 1004.76 1004.56 1004.65 1004.79 1005.09 1005.02 1004.86 1004.57 1005.07 1005.57 1006.00 1006.71 1006.72 1006.98 1007.05 1007.24 1007.03 1007.04 1007.14 1007.30 1007.53 1007.86 1008.23 1008.38 1007.99
1007.18 1007.00 1007.09 1007.45 1007.41 1007.08 1006.62 1006.76 1006.64 1006.64 1006.35 1005.75 1005.45 1005.02 1004.82 1004.71 1004.63 1004.45 1004.24 1004.31 1004.57 1004.91 1005.18 1005.17 1005.18 1005.36 1005.39 1005.62 1006.25 1006.13 1006.47 1006.58 1006.90 1007.03 1006.51 1006.42 1006.57 1006.89 1006.97 1007.40 1007.44 1007.20 1006.98
1007.74 1007.65 1007.74 1008.17 1008.01 1007.62 1007.04 1007.02 1007.33 1007.26 1006.73 1006.41 1005.56 1005.40 1005.41 1005.41 1004.71 1005.17 1004.94 1004.66 1004.81 1004.85 1005.31 1005.59 1005.70 1005.75 1005.96 1006.38 1006.17 1006.47 1006.77 1006.96 1006.79 1006.34 1006.06 1005.89 1006.23 1006.43 1006.56 1006.73 1006.56 1006.80 1006.89
1008.00 1008.06 1007.99 1008.24 1008.04 1008.13 1007.88 1007.90 1007.85 1007.33 1006.94 1006.51 1006.48 1006.32 1006.00 1005.51 1005.31 1005.66 1005.83 1005.19 1005.18 1005.31 1005.37 1005.93 1006.11 1006.16 1006.41 1006.54 1007.05 1007.05 1007.17 1006.97 1006.89 1006.87 1006.66 1006.49 1006.18 1006.39 1006.73 1006.49 1006.11 1006.23 1006.33
1007.82 1007.83 1008.02 1008.06 1008.07 1007.82 1007.64 1007.72 1007.59 1007.55 1007.25 1007.13 1007.09 1006.69 1006.61 1006.59 1006.10 1005.67 1006.25 1005.39 1005.54 1005.84 1005.84 1006.03 1006.24 1006.53 1006.63 1006.95 1007.05 1007.46 1007.55 1007.52 1007.31 1007.16 1007.05 1006.75 1006.47 1006.19 1005.96 1005.86 1005.74 1005.70 1005.00
1007.71 1007.80 1008.03 1008.14 1008.32 1008.38 1008.34 1008.16 1008.13 1007.74 1007.72 1007.80 1007.71 1007.34 1006.93 1006.61 1006.25 1006.37 1006.28 1005.43 1005.43 1005.86 1006.13 1006.33 1006.49 1006.78 1007.05 1007.17 1007.60 1007.82 1007.71 1007.38 1007.45 1007.36 1007.01 1006.67 1006.29 1005.96 1005.42 1005.13 1004.87 1004.57 1004.48
1007.88 1007.92 1007.93 1008.04 1008.11 1007.95 1007.95 1007.82 1007.79 1007.82 1007.40 1007.33 1007.18 1007.18 1007.04 1006.78 1006.52 1006.67 1006.07 1005.43 1005.81 1006.08 1006.31 1006.47 1006.51 1006.82 1007.02 1007.60 1008.33 1008.44 1008.09 1007.68 1007.35 1007.49 1007.14 1006.71 1006.33 1006.06 1005.48 1004.92 1004.68 1004.25 1004.10
Wind_Speed
25 12 14 16 17 18 18 19 17 17 13 12 11 9 9 7 5 6 9 10 9 10 9 7 6 6 7 7 7 4 5 5 3 3 2 3 5 5 4 4 4 6 7
15 17 18 18 22 20 20 20 20 18 16 12 12 8 9 7 7 6 7 9 10 10 10 9 7 8 6 6 7 6 2 3 4 3 2 2 4 3 6 4 5 7 5
14 19 20 22 18 22 25 22 22 19 17 15 10 4 4 3 5 6 7 9 11 11 11 11 9 8 7 7 8 7 8 5 3 5 5 2 5 1 1 4 4 5 4
16 11 19 15 12 4 1 6 10 13 15 15 12 15 13 11 9 8 8 9 11 11 12 11 9 8 7 7 9 8 7 5 5 1 4 3 4 3 3 2 2 2 5
15 14 9 8 7 10 10 9 7 6 8 7 9 10 12 9 8 4 9 9 8 10 11 10 9 9 7 8 7 6 7 5 4 4 3 4 2 1 2 4 4 2 3
14 10 9 13 10 7 8 9 10 8 7 8 10 11 13 11 8 9 8 7 6 7 9 10 10 10 9 9 8 8 8 7 7 5 4 5 4 4 4 5 5 4 3
7 10 6 8 11 12 9 10 9 5 6 7 11 12 14 13 14 12 10 9 7 5 9 10 9 8 9 8 7 8 9 9 8 8 6 4 4 4 3 3 2 4 3
5 5 7 8 2 11 12 9 8 6 6 5 9 10 13 10 8 10 10 8 9 10 11 11 11 11 9 9 8 6 7 6 6 7 6 6 5 5 6 4 4 4 3
5 6 8 7 8 6 6 8 11 9 9 8 2 13 13 13 11 8 6 8 8 7 10 12 12 11 11 10 9 7 7 6 7 8 7 6 4 4 4 4 5 6 5
7 3 7 8 7 6 6 7 7 9 11 12 4 17 18 14 10 8 7 9 7 8 9 10 11 10 10 10 10 7 6 8 5 6 7 5 3 4 3 4 4 5 5
8 8 9 5 3 5 3 5 6 8 12 4 13 7 4 7 7 6 3 6 7 8 8 10 10 10 10 10 9 9 8 8 6 5 6 6 5 4 3 3 3 4 4
7 7 9 10 4 5 8 9 6 8 8 3 8 17 6 12 7 6 2 1 5 4 9 8 8 8 10 10 11 10 8 9 7 6 6 7 4 5 5 4 5 4 4
7 8 8 8 7 4 1 7 7 7 6 6 17 16 7 11 11 7 2 4 5 6 3 3 7 7 8 10 10 10 8 8 8 8 8 8 6 6 4 5 4 4 3
8 7 7 7 6 5 2 4 6 9 8 18 19 19 16 10 11 9 8 5 9 7 7 6 4 5 5 8 8 9 8 8 8 7 7 8 7 8 8 7 8 5 5
7 8 6 6 7 7 4 1 5 8 6 12 6 8 10 13 7 7 7 6 7 7 6 5 6 3 7 5 6 8 9 9 8 6 7 7 10 13 10 6 7 7 5
8 5 5 7 6 7 5 4 4 5 4 2 3 4 7 10 9 9 8 4 4 4 4 6 5 7 4 5 10 10 8 9 9 9 7 7 10 11 13 13 11 12 8
8 3 2 3 5 7 6 5 5 6 5 7 4 3 5 5 5 7 9 10 10 7 6 7 6 5 5 7 10 13 6 8 7 8 8 8 7 10 8 12 13 11 14
7 3 4 5 6 5 7 6 7 8 9 7 7 6 2 2 4 5 5 6 6 8 9 8 8 10 9 10 10 8 5 3 6 7 7 8 9 8 9 7 7 8 8
7 2 4 7 6 7 6 5 7 7 7 6 5 3 2 4 4 4 4 5 4 6 7 5 9 11 8 12 10 7 3 6 7 6 6 8 10 11 15 8 8 7 6
1 4 7 6 6 5 5 7 7 6 6 6 5 4 4 4 4 5 6 3 2 4 4 4 5 6 6 8 8 8 4 5 5 6 7 12 11 10 12 9 8 8 8
3 5 8 6 4 5 6 8 6 7 6 5 5 6 6 5 5 3 2 2 1 2 2 2 2 3 1 4 5 7 3 4 5 8 5 6 11 14 11 13 8 11 7
5 5 6 3 2 5 6 7 7 5 5 5 7 6 6 4 5 6 4 3 4 5 3 2 4 5 7 9 7 3 5 5 4 4 3 3 10 11 10 8 12 11 3
5 4 5 3 3 3 4 5 5 5 6 7 7 6 5 6 6 6 5 3 5 3 4 4 4 3 3 4 7 8 4 5 2 3 6 11 8 7 8 13 10 9 5
3 3 5 4 3 4 4 3 4 4 6 7 7 7 7 7 6 3 2 4 4 3 3 3 3 2 3 2 2 3 1 0 2 3 4 6 8 9 9 7 8 6 5
3 4 4 3 2 0 2 2 3 4 6 4 4 5 4 4 5 4 5 1 1 2 1 1 2 2 2 1 2 4 4 3 3 5 3 4 3 5 5 6 6 4 4
2 3 3 3 2 2 3 3 4 4 5 6 5 4 4 3 3 4 5 3 2 1 3 1 2 2 7 7 3 2 2 3 5 2 3 5 4 7 7 7 7 5 7
Wind_Direction
224 209 192 186 185 190 184 183 189 193 187 182 183 187 190 186 183 187 185 181 188 191 187 196 194 186 193 199 197 190 195 220 180 111 304 280 255 258 238 203 214 221 221
228 206 196 190 190 187 189 189 191 189 196 193 184 188 187 196 192 191 185 189 186 189 192 191 188 190 189 188 194 194 195 221 160 149 102 306 317 277 242 230 224 223 209
298 215 196 194 187 193 192 191 188 190 192 196 187 145 142 104 167 189 198 196 190 187 193 193 194 189 187 196 198 195 190 194 188 197 152 138 226 316 294 240 235 246 229
345 235 208 191 197 144 103 241 216 196 196 188 193 185 187 196 199 196 199 194 197 195 195 194 193 195 200 198 192 190 190 160 180 201 231 213 158 188 315 316 260 245 240
15 19 75 113 132 149 157 154 171 200 201 221 227 211 191 202 194 159 180 192 191 197 200 194 186 195 196 209 196 188 192 182 165 188 168 210 221 280 150 264 287 309 241
359 26 45 82 66 82 134 138 151 167 188 200 208 220 231 196 184 178 179 190 193 195 203 197 195 200 199 197 199 199 195 193 206 190 188 173 171 194 193 236 249 247 281
352 344 16 95 105 90 79 96 91 118 173 202 216 207 220 226 202 191 187 174 183 189 202 195 200 199 198 196 179 193 201 199 207 205 212 209 206 159 173 176 247 242 274
330 322 320 328 157 141 147 145 145 177 136 108 247 233 233 209 219 204 199 191 194 195 189 196 203 207 194 194 192 193 204 194 207 217 203 210 208 199 194 181 182 265 252
289 283 276 272 302 301 179 170 177 173 157 147 97 254 216 234 212 212 197 197 197 191 198 197 199 202 201 191 182 196 206 188 198 212 209 210 205 204 196 196 194 217 251
303 257 254 259 267 285 305 288 280 226 181 155 66 321 231 214 212 194 201 214 209 209 198 202 200 194 197 192 184 193 192 198 199 208 205 210 189 205 206 209 204 205 223
301 311 305 280 235 227 218 211 259 300 304 184 109 212 117 97 44 39 8 228 188 199 201 201 199 196 193 190 188 189 183 195 199 192 201 207 188 196 195 201 189 208 187
303 286 287 306 318 321 336 330 271 226 230 115 99 82 152 116 56 338 61 353 307 217 199 185 191 205 193 187 189 190 187 189 197 201 193 218 194 202 197 183 222 211 198
315 319 310 296 308 304 29 296 291 256 223 149 134 138 219 125 128 228 103 244 238 224 280 231 189 195 201 189 189 181 184 187 193 198 206 217 191 199 193 182 203 218 202
286 299 294 306 319 301 299 316 295 270 192 148 144 165 190 161 186 197 172 142 225 236 202 197 250 235 195 201 190 181 178 192 201 199 202 215 201 210 202 187 200 190 213
289 291 315 324 328 317 265 204 324 21 140 138 146 202 183 152 157 182 170 180 240 233 236 191 214 245 211 195 190 187 188 195 201 201 207 211 216 212 206 191 190 180 199
287 274 326 320 331 327 359 29 40 350 47 37 45 64 143 145 160 176 164 161 219 235 229 239 233 224 241 216 202 198 197 197 201 209 218 220 219 226 210 212 196 179 186
281 236 3 303 8 335 341 7 28 54 48 52 46 50 61 91 142 183 187 203 216 224 237 234 236 263 239 236 222 213 202 203 203 205 210 220 220 211 214 217 223 213 202
318 29 24 23 6 1 16 37 25 33 45 40 37 24 30 181 181 176 190 206 220 226 230 237 223 231 232 192 193 199 209 223 221 211 211 226 232 207 204 215 210 221 210
302 350 40 41 27 15 10 39 36 13 39 45 54 39 135 187 176 196 202 208 198 215 235 240 220 214 207 182 144 133 173 239 232 215 205 215 229 219 204 199 211 223 237
308 83 63 45 28 11 28 64 45 25 20 2 5 36 60 70 92 185 208 203 195 238 231 238 241 182 145 157 173 193 178 215 243 246 237 223 227 235 222 200 217 232 228
62 74 64 55 11 356 38 44 36 20 341 354 11 25 21 31 28 74 126 152 94 98 64 41 55 98 38 116 227 178 227 221 219 237 220 217 211 228 230 220 210 222 197
86 83 85 73 28 23 42 31 24 329 15 22 27 15 22 20 45 28 16 79 115 104 78 64 48 62 81 38 37 2 265 319 261 257 264 249 226 233 234 201 231 254 197
149 132 117 99 28 26 52 49 337 9 18 34 22 15 9 25 31 37 6 62 73 89 87 81 91 94 55 83 72 74 62 24 320 323 309 302 300 257 247 230 230 211 196
165 142 136 117 63 11 24 9 7 18 40 38 17 12 13 356 6 25 340 45 58 65 75 80 86 94 113 62 25 7 6 331 293 303 301 292 270 261 266 259 225 219 192
157 136 123 103 102 24 344 351 13 35 39 37 14 6 2 5 10 348 288 207 190 145 133 128 117 109 47 5 44 19 356 359 346 332 316 320 315 294 269 260 247 221 202
109 103 80 81 5 25 342 347 3 40 39 25 8 351 354 11 28 344 338 27 297 112 86 151 150 142 121 112 120 194 266 305 326 321 293 300 283 289 282 269 262 239 220